User: anonymous   Login
Location: Unspecified
(0.0000°N, 0.0000°E)
Time: 06:18:46
(UTC+00:00)
Language:

UOSAT-12 - Orbit

View from above orbital plane
View from above orbital plane
View from above satellite
View from above satellite

Ground track
Ground track

The orbit data is extracted from the following two-line orbital elements,

1 25693U 99021A   18175.17591799 -.00000111 +00000-0 +51151-5 0  9998
2 25693 064.5566 059.1157 0049040 263.6848 095.8670 14.80801703035242
Epoch (UTC): 24 June 2018 04:13:19
Eccentricity: 0.0049040
inclination: 64.5566°
perigee height: 592 km
apogee height: 661 km
right ascension of ascending node: 59.1157°
argument of perigee: 263.6848°
revolutions per day: 14.80801703
mean anomaly at epoch: 95.8670°
orbit number at epoch: 3524

The dashed part of the orbit path shows where the satellite is in the earth's shadow,  

DLR